This demonstration page uses our WeatherBlox Daily Observations layout. Learn more.

Left ArrowRight Arrow

Hourly Observations for December 31, 2018

Temp ( °F °C ) Dew Point ( °F °C ) Humidity (%) Winds ( mph kmh ) Pressure ( in mb ) Visibility ( mi km ) Precip ( " mm )
12:15 am 00:15 Clear 33 0.5 30 -1.1 89 89 SSE 5 7 30.12 1020 10 16 0.00 0.00
12:35 am 00:35 Mostly Cloudy 33 0.8 30 -1 88 88 SSE 6 9 30.09 1019 10 16 0.00 0.00
12:55 am 00:55 Cloudy 34 1.2 30 -1 85 85 SSE 6 9 30.09 1019 10 16 0.00 0.00
1:15 am 01:15 Cloudy 35 1.4 30 -0.9 85 85 SE 5 7 30.09 1019 10 16 0.00 0.00
1:35 am 01:35 Cloudy 34 1.3 31 -0.8 86 86 SE 6 9 30.06 1018 10 16 0.00 0.00
1:55 am 01:55 Cloudy 34 1.3 31 -0.6 87 87 SE 6 9 30.06 1018 10 16 0.00 0.00
2:15 am 02:15 Cloudy 35 1.7 31 -0.7 84 84 SE 6 9 30.06 1018 10 16 0.00 0.00
2:35 am 02:35 Cloudy 35 1.7 31 -0.5 86 86 SSE 5 7 30.06 1018 10 16 0.00 0.00
2:55 am 02:55 Cloudy 35 1.7 31 -0.3 87 87 SSE 7 11 30.06 1018 10 16 0.00 0.00
3:15 am 03:15 Cloudy 36 2 32 -0.2 86 86 SSE 6 9 30.06 1018 10 16 0.00 0.00
3:40 am 03:40 Cloudy 36 2.2 32 -0.1 85 85 SSE 6 9 30.06 1018 10 16 0.00 0.00
3:55 am 03:55 Cloudy with Rain 36 2.1 32 0 86 86 SSE 6 9 30.06 1018 10 16 0.00 0.00
4:15 am 04:15 Cloudy with Heavy Rain 36 2 33 0.6 91 91 SSE 6 9 30.03 1017 4 6 0.04 1.02
4:35 am 04:35 Cloudy with Rain 35 1.7 35 1.5 99 99 ESE 3 6 30.03 1017 5 8 0.07 1.78
4:55 am 04:55 Cloudy with Rain 35 1.8 35 1.8 100 100 ESE 3 6 30.03 1017 4 6 0.12 3.05
5:15 am 05:15 Cloudy with Rain 35 1.7 35 1.7 100 100 ESE 3 6 30.03 1017 3 5 0.04 1.02
5:35 am 05:35 Cloudy with Rain 35 1.9 35 1.9 100 100 ESE 3 6 30.00 1016 4 6 0.08 2.03
5:55 am 05:55 Cloudy with Rain 36 2 36 2 100 100 ESE 7 11 29.97 1015 3 5 0.12 3.05
6:15 am 06:15 Cloudy with Heavy Rain 36 2.2 36 2.2 100 100 E 8 13 29.97 1015 3 4 0.05 1.27
6:35 am 06:35 Cloudy with Light Rain 37 2.5 37 2.5 100 100 E 8 13 29.94 1014 3 4 0.10 2.54
6:55 am 06:55 Cloudy with Rain 37 2.8 37 2.8 100 100 E 7 11 29.94 1014 3 5 0.14 3.56
7:15 am 07:15 Cloudy with Light Rain 37 3 37 3 100 100 E 8 13 29.94 1014 3 5 0.02 0.51
7:35 am 07:35 Cloudy with Rain 38 3.3 38 3.3 100 100 ESE 7 11 29.91 1013 3 5 0.04 1.02
7:55 am 07:55 Cloudy with Rain 38 3.5 38 3.5 100 100 ESE 9 15 29.91 1013 3 4 0.08 2.03
8:15 am 08:15 Cloudy with Rain 39 3.7 39 3.7 100 100 ESE 10 17 29.88 1012 3 5 0.02 0.51
8:35 am 08:35 Cloudy with Rain 39 4 39 4 100 100 ESE 9 15 29.88 1012 4 6 0.03 0.76
8:55 am 08:55 Cloudy with Drizzle 40 4.5 40 4.5 100 100 SE 12 19 29.88 1012 3 4 0.03 0.76
9:15 am 09:15 Cloudy with Drizzle 40 4.7 40 4.7 100 100 ESE 10 17 29.88 1012 3 5 0.01 0.25
9:35 am 09:35 Cloudy with Light Rain 41 5 41 5 100 100 ESE 10 17 29.85 1011 3 5 0.01 0.25
9:55 am 09:55 Cloudy with Drizzle 42 5.3 42 5.3 100 100 ESE 10 17 29.83 1010 3 5 0.02 0.51
10:15 am 10:15 Cloudy with Mist and Fog 42 5.6 42 5.6 100 100 SE 9 15 29.83 1010 2 3 0.00 0.00
10:35 am 10:35 Cloudy with Mist and Fog 42 5.8 42 5.8 100 100 SE 9 15 29.80 1009 1 2 0.00 0.00
10:55 am 10:55 Cloudy with Fog 43 6 43 6 100 100 ESE 9 15 29.77 1008 1 1 0.00 0.00
11:15 am 11:15 Cloudy with Fog 44 6.6 44 6.6 100 100 SE 15 24 29.77 1008 0 0 0.00 0.00
11:35 am 11:35 Cloudy with Light Rain 45 7 45 7 100 100 SE 14 22 29.74 1007 0 0 0.00 0.00
11:55 am 11:55 Cloudy with Rain 46 7.6 46 7.6 100 100 SE 13 20 29.71 1006 2 2 0.02 0.51
12:15 pm 12:15 Cloudy with Heavy Rain 47 8.3 47 8.3 100 100 SSE 15 24 29.68 1005 3 5 0.06 1.52
12:35 pm 12:35 Cloudy with Rain 47 8.6 47 8.6 100 100 SSE 12 19 29.65 1004 4 6 0.11 2.79
12:55 pm 12:55 Cloudy with Rain 48 9 48 9 100 100 SSE 13 20 29.59 1002 5 8 0.12 3.05
1:15 pm 13:15 Cloudy with Heavy Rain 48 9.1 48 9.1 100 100 SSE 10 17 29.59 1002 2 3 0.10 2.54
1:35 pm 13:35 Cloudy with Rain 49 9.4 49 9.4 100 100 SSE 10 17 29.59 1002 3 5 0.12 3.05
1:55 pm 13:55 Cloudy with Rain 49 9.5 49 9.5 100 100 SSE 10 17 29.59 1002 3 4 0.14 3.56
2:15 pm 14:15 Cloudy with Heavy Rain 50 9.8 50 9.8 100 100 SSE 9 15 29.56 1001 3 5 0.17 4.32
2:35 pm 14:35 Cloudy with Heavy Rain 50 10 50 10 100 100 S 5 7 29.56 1001 2 3 0.28 7.11
2:55 pm 14:55 Cloudy with Rain 50 10.2 50 10.2 100 100 SSE 7 11 29.56 1001 10 16 0.30 7.62
3:15 pm 15:15 Cloudy with Light Rain 52 11 52 11 100 100 S 13 20 29.53 1000 10 16 0.00 0.00
3:35 pm 15:35 Cloudy with Light Rain 53 11.5 53 11.5 100 100 S 12 19 29.53 1000 7 11 0.02 0.51
3:55 pm 15:55 Cloudy with Light Rain 53 11.6 53 11.6 100 100 S 14 22 29.50 999 10 16 0.03 0.76
4:15 pm 16:15 Cloudy with Drizzle 54 12.1 54 12.1 100 100 S 12 19 29.50 999 10 16 0.00 0.00
4:35 pm 16:35 Cloudy 55 12.6 55 12.6 100 100 S 13 20 29.50 999 10 16 0.00 0.00
4:55 pm 16:55 Cloudy 55 12.8 55 12.8 100 100 S 15 24 29.47 998 10 16 0.00 0.00
5:15 pm 17:15 Cloudy 55 13 55 13 100 100 S 14 22 29.50 999 10 16 0.00 0.00
5:35 pm 17:35 Mostly Cloudy 56 13.4 56 13.4 100 100 SSW 16 26 29.50 999 10 16 0.00 0.00
5:55 pm 17:55 Cloudy 57 13.9 57 13.9 100 100 SSW 17 28 29.50 999 10 16 0.00 0.00
6:15 pm 18:15 Cloudy 58 14.2 58 14.2 100 100 SSW 20 31 29.50 999 10 16 0.00 0.00
6:35 pm 18:35 Cloudy 58 14.4 58 14.3 99 99 SSW 21 33 29.50 999 10 16 0.00 0.00
6:55 pm 18:55 Cloudy with Drizzle 56 13.4 56 13.4 100 100 WSW 25 41 29.53 1000 7 11 0.00 0.00
7:15 pm 19:15 Cloudy 55 12.5 54 12.1 97 97 WSW 28 44 29.56 1001 10 16 0.00 0.00
7:35 pm 19:35 Cloudy 52 11.3 51 10.7 96 96 WSW 23 37 29.59 1002 10 16 0.00 0.00
7:55 pm 19:55 Cloudy 51 10.7 49 9.5 92 92 WSW 26 43 29.62 1003 10 16 0.00 0.00
8:15 pm 20:15 Cloudy 49 9.5 48 9.1 97 97 WSW 24 39 29.65 1004 7 11 0.00 0.00
8:35 pm 20:35 Cloudy with Drizzle 45 7.4 45 7.2 99 99 W 30 48 29.71 1006 5 8 0.00 0.00
8:55 pm 20:55 Cloudy 44 6.9 44 6.6 98 98 WSW 23 37 29.71 1006 10 16 0.00 0.00
9:15 pm 21:15 Cloudy 44 6.9 43 6.1 95 95 WSW 25 41 29.71 1006 10 16 0.00 0.00
9:35 pm 21:35 Cloudy 45 7 44 6.4 96 96 WSW 20 31 29.74 1007 10 16 0.00 0.00
9:55 pm 21:55 Cloudy 43 6.3 43 6.1 99 99 WSW 23 37 29.77 1008 7 11 0.00 0.00
10:15 pm 22:15 Cloudy with Mist and Fog 42 5.8 42 5.8 100 100 WSW 22 35 29.77 1008 4 6 0.00 0.00
10:35 pm 22:35 Cloudy 42 5.5 42 5.5 100 100 W 23 37 29.80 1009 7 11 0.00 0.00
10:55 pm 22:55 Cloudy 41 5.1 41 5 99 99 W 25 41 29.83 1010 7 11 0.00 0.00
11:15 pm 23:15 Cloudy 40 4.6 40 4.5 99 99 W 20 31 29.83 1010 7 11 0.00 0.00
11:35 pm 23:35 Cloudy 40 4.3 38 3.6 95 95 W 24 39 29.85 1011 10 16 0.00 0.00
11:55 pm 23:55 Cloudy 39 4 38 3.1 94 94 W 20 31 29.88 1012 10 16 0.00 0.00

Powered by AerisWeather